Weather Roundup
Issued by NWS

Home | Current Version | Previous Version | Text Only | Print | Product List | Glossary On
Versions: 1 2 3 4 5 6 7 8 9 10 11 12 13 14 15 16 17 18 19 20 21 22 23 24 25 26 27 28 29 30 31 32 33 34 35 36 37 38 39 40 41 42 43 44 45 46 47 48 49 50
000
NZUS93 KARX 280559
HRRWXR

CURRENT HOURLY OBSERVATIONS ACROSS
MUCH OF THE UPPER MISSISSIPPI VALLEY
NATIONAL WEATHER SERVICE LA CROSSE WI
100 AM CDT MON JUL 28 2014


...SOUTHEAST MINNESOTA...


CITY           SKY/WX    TMP DP  RH WIND       PRES   REMARKS
ROCHESTER      CLEAR     57  54  89 NW7       30.14R
ROCHESTER/MAYO FAIR      58  54  84 NW3       30.13R
WINONA         CLEAR     59  54  82 CALM      30.11R
AUSTIN         PTCLDY    57  55  94 N3        30.13R
ALBERT LEA     CLOUDY    63  55  77 N6        30.14R
DODGE CENTER   PTCLDY    57  55  94 N6        30.13S
PRESTON        CLEAR     56  56 100 N6        30.12R
OWATONNA       CLOUDY    63  55  77 NE5       30.14R
FARIBAULT      CLOUDY    64  54  68 CALM      30.14S
$$

...ELSEWHERE IN MINNESOTA...


CITY           SKY/WX    TMP DP  RH WIND       PRES   REMARKS
MINNEAPOLIS    CLOUDY    65  58  78 N6        30.13S
INTNL FALLS    CLEAR     50  48  93 NW3       30.16R
DULUTH         MOCLDY    56  53  90 NW7       30.12R
RED WING       CLOUDY    59  55  88 CALM      30.11S
REDWOOD FALLS  CLOUDY    63  58  83 NW8       30.17R
MANKATO        CLOUDY    63  57  82 N5        30.15R
WORTHINGTON    PTCLDY    57  54  88 N8        30.20S
FAIRMONT       CLOUDY    63  55  77 NW9       30.16R
$$

...SOUTHWEST WISCONSIN...


CITY           SKY/WX    TMP DP  RH WIND       PRES   REMARKS
LA CROSSE      CLEAR     59  54  83 N7        30.08R
PRAIRIE DU CHI CLEAR     64  56  73 N5        30.04R
BOSCOBEL       CLEAR     64  54  69 N8        30.05R
LONE ROCK      NOT AVBL
PLATTEVILLE    CLOUDY    63  59  87 N10       30.03R
FORT MC COY    CLEAR     55  50  85 N3        30.08R
VIROQUA        FAIR      58  55  89 N8        30.07R
WIS DELLS      CLEAR     59  52  76 N5        30.04R
$$

...ELSEWHERE IN WISCONSIN...


CITY           SKY/WX    TMP DP  RH WIND       PRES   REMARKS
MILWAUKEE      PTCLDY    62  52  69 NW9       29.95R
MADISON        CLEAR     60  54  80 NW7       30.01R
GREEN BAY      CLEAR     57  50  77 N9        29.99R
EAU CLAIRE     NOT AVBL
BLACK RVR FLS  FAIR      57  52  82 NW3       30.08R
MEDFORD        CLEAR     52  50  93 NW7       30.08R
WAUSAU         CLEAR     55  52  89 NW7       30.05R
WIS RAPIDS     CLEAR     56  52  86 MISG      30.07R
MARSHFIELD     CLEAR     54  51  90 NW9       30.07R
RICE LAKE      CLOUDY    55  52  89 CALM      30.13R
$$

...NORTHEAST IOWA...


CITY           SKY/WX    TMP DP  RH WIND       PRES   REMARKS
WATERLOO       MOCLDY    63  59  87 N12       30.07R
DUBUQUE        CLOUDY    65  59  81 N13       30.03R
DECORAH        CLEAR     61  57  88 N6        30.08R
MASON CITY     MOCLDY    62  59  90 N9        30.14R
CHARLES CITY   CLEAR     61  57  88 N7        30.11R
OELWEIN        CLEAR     63  59  88 N10       30.07R
$$

...ELSEWHERE IN IOWA...


CITY           SKY/WX    TMP DP  RH WIND       PRES   REMARKS
DES MOINES     CLEAR     66  57  72 N12G21    30.10R
IOWA CITY      CLEAR     66  61  84 NW10      30.04R
FORT DODGE     CLEAR     61  57  88 NW5       30.14R
MARSHALLTOWN   PTCLDY    63  60  90 NW12      30.08R
CEDAR RAPIDS   CLEAR     63  59  87 NW10      30.04R
$$

...NORTHERN ILLINOIS...


CITY           SKY/WX    TMP DP  RH WIND       PRES   REMARKS
CHICAGO-OHARE  CLOUDY    66  51  58 N16G26    29.92R
DUPAGE         CLOUDY    65  58  78 N10       29.93R
CHICAGO-MIDWAY MOCLDY    67  53  61 N20G30    29.91R
MOLINE         MOCLDY    68  60  75 NW8       29.99R
ROCKFORD       PTCLDY    65  56  72 N22       29.99R
STERLING       PTCLDY    64  57  77 N7        29.98R
PEORIA         CLEAR     67  59  75 NW8       29.96R
$$

NOTE: "FAIR" INDICATES FEW OR NO CLOUDS BELOW 12,000 FEET WITH NO
SIGNIFICANT WEATHER AND/OR OBSTRUCTIONS TO VISIBILITY. WIND
SPEEDS ARE IN MILES-PER-HOUR.



USA.gov is the U.S. government's official web portal to all federal, state and local government web resources and services.